ARG1970 SAVC-SAVT

Flight info

Callsign ARG1970
Flight time N/A
Altitude 25000
Route GATUD1C GATUD GATUD2U
Aircraft B738/M-SDE2E3FGHIRWXY/LB1

Departure

Time 2026-05-06 18:20
Airport General Enrique Mosconi International Airport (SAVC)

Arrival

Time N/A
Airport Almirante Marco Andres Zar Airport (SAVT)
Time Latitude Longitude Altitude Speed Heading
2026-05-06 18:02 -45.78948 -67.46865 165 ft 0 kts 209°
2026-05-06 18:13 -45.78951 -67.46867 165 ft 2 kts 211°
2026-05-06 18:13 -45.78956 -67.46889 165 ft 2 kts 282°
2026-05-06 18:13 -45.78941 -67.46909 165 ft 3 kts 325°
2026-05-06 18:13 -45.78927 -67.46923 165 ft 0 kts 323°
2026-05-06 18:14 -45.78921 -67.46940 165 ft 2 kts 271°
2026-05-06 18:14 -45.78923 -67.46951 165 ft 0 kts 258°
2026-05-06 18:16 -45.78923 -67.46953 165 ft 2 kts 258°
2026-05-06 18:16 -45.78927 -67.46975 165 ft 0 kts 258°
2026-05-06 18:16 -45.78927 -67.46976 165 ft 1 kts 258°
2026-05-06 18:16 -45.78926 -67.47082 165 ft 17 kts 273°
2026-05-06 18:17 -45.78874 -67.47210 165 ft 17 kts 331°
2026-05-06 18:17 -45.78827 -67.47337 165 ft 17 kts 262°
2026-05-06 18:17 -45.78856 -67.47550 165 ft 25 kts 257°
2026-05-06 18:17 -45.78896 -67.47826 165 ft 30 kts 258°
2026-05-06 18:18 -45.78931 -67.48114 165 ft 27 kts 270°
2026-05-06 18:18 -45.78809 -67.48239 165 ft 23 kts
2026-05-06 18:18 -45.78727 -67.48109 165 ft 4 kts 75°
2026-05-06 18:18 -45.78726 -67.48108 165 ft 0 kts 75°
2026-05-06 18:19 -45.78698 -67.47912 165 ft 63 kts 80°
2026-05-06 18:19 -45.78569 -67.46870 166 ft 145 kts 81°
2026-05-06 18:20 -45.78373 -67.45228 605 ft 177 kts 82°
2026-05-06 18:20 -45.78171 -67.43481 1509 ft 180 kts 81°
2026-05-06 18:20 -45.77923 -67.41726 2200 ft 190 kts 80°
2026-05-06 18:20 -45.77642 -67.39751 2576 ft 213 kts 80°
2026-05-06 18:21 -45.77343 -67.37573 2915 ft 234 kts 80°
2026-05-06 18:21 -45.76778 -67.35356 3431 ft 246 kts 60°
2026-05-06 18:21 -45.75779 -67.33340 4247 ft 254 kts 54°
2026-05-06 18:21 -45.74757 -67.31229 5035 ft 267 kts 58°
2026-05-06 18:22 -45.73776 -67.28944 5867 ft 277 kts 60°
2026-05-06 18:22 -45.72801 -67.26569 6797 ft 283 kts 60°
2026-05-06 18:22 -45.71810 -67.24147 7733 ft 288 kts 60°
2026-05-06 18:22 -45.70788 -67.21660 8679 ft 293 kts 59°
2026-05-06 18:23 -45.69751 -67.19154 9619 ft 298 kts 59°
2026-05-06 18:23 -45.68679 -67.16578 10448 ft 308 kts 58°
2026-05-06 18:23 -45.67545 -67.13880 10772 ft 334 kts 58°
2026-05-06 18:23 -45.66312 -67.10974 11495 ft 345 kts 57°
2026-05-06 18:24 -45.65066 -67.08051 12336 ft 352 kts 57°
2026-05-06 18:24 -45.63776 -67.05037 13200 ft 358 kts 57°
2026-05-06 18:24 -45.62465 -67.01997 14060 ft 363 kts 56°
2026-05-06 18:24 -45.61149 -66.98965 14890 ft 369 kts 55°
2026-05-06 18:25 -45.59614 -66.95990 15729 ft 373 kts 47°
2026-05-06 18:25 -45.57817 -66.93295 16553 ft 377 kts 40°
2026-05-06 18:25 -45.55779 -66.90972 17332 ft 380 kts 31°
2026-05-06 18:25 -45.53562 -66.88965 18109 ft 384 kts 28°
2026-05-06 18:26 -45.51286 -66.86988 18846 ft 389 kts 28°
2026-05-06 18:26 -45.48941 -66.84963 19574 ft 394 kts 28°
2026-05-06 18:26 -45.46621 -66.82970 20269 ft 399 kts 28°
2026-05-06 18:26 -45.44213 -66.80908 20956 ft 405 kts 28°
2026-05-06 18:27 -45.41794 -66.78840 21632 ft 409 kts 28°
2026-05-06 18:27 -45.39351 -66.76755 22267 ft 414 kts 28°
2026-05-06 18:27 -45.36897 -66.74662 22896 ft 419 kts 28°
2026-05-06 18:27 -45.34388 -66.72527 23501 ft 423 kts 28°
2026-05-06 18:28 -45.31848 -66.70367 24096 ft 428 kts 29°
2026-05-06 18:28 -45.29314 -66.68215 24660 ft 432 kts 29°
2026-05-06 18:28 -45.26712 -66.66007 24937 ft 435 kts 29°
2026-05-06 18:28 -45.24096 -66.63790 24939 ft 443 kts 29°
2026-05-06 18:29 -45.21446 -66.61548 24940 ft 446 kts 29°
2026-05-06 18:29 -45.18793 -66.59303 24939 ft 445 kts 29°
2026-05-06 18:29 -45.16157 -66.57075 24939 ft 444 kts 29°
2026-05-06 18:29 -45.13500 -66.54833 24939 ft 443 kts 29°
2026-05-06 18:30 -45.10860 -66.52608 24939 ft 444 kts 29°
2026-05-06 18:30 -45.08231 -66.50395 24939 ft 445 kts 29°
2026-05-06 18:30 -45.05554 -66.48243 24939 ft 446 kts 27°
2026-05-06 18:30 -45.02815 -66.46106 24939 ft 448 kts 27°
2026-05-06 18:31 -45.00114 -66.43998 24939 ft 448 kts 28°
2026-05-06 18:31 -44.97374 -66.41854 24939 ft 449 kts 28°
2026-05-06 18:31 -44.94649 -66.39719 24939 ft 450 kts 28°
2026-05-06 18:31 -44.91919 -66.37576 24939 ft 450 kts 28°
2026-05-06 18:32 -44.89227 -66.35465 24938 ft 450 kts 28°
2026-05-06 18:32 -44.86490 -66.33315 24939 ft 449 kts 28°
2026-05-06 18:32 -44.83770 -66.31176 24939 ft 449 kts 28°
2026-05-06 18:32 -44.81065 -66.29051 24939 ft 450 kts 28°
2026-05-06 18:33 -44.78331 -66.26905 24939 ft 449 kts 28°
2026-05-06 18:33 -44.75613 -66.24776 24939 ft 450 kts 28°
2026-05-06 18:33 -44.72886 -66.22639 24937 ft 450 kts 28°
2026-05-06 18:33 -44.70158 -66.20506 24928 ft 450 kts 28°
2026-05-06 18:34 -44.67415 -66.18362 24918 ft 450 kts 28°
2026-05-06 18:34 -44.64714 -66.16254 24909 ft 450 kts 28°
2026-05-06 18:34 -44.61966 -66.14111 24896 ft 450 kts 28°
2026-05-06 18:34 -44.59254 -66.11998 24877 ft 450 kts 28°
2026-05-06 18:35 -44.56498 -66.09853 24861 ft 450 kts 28°
2026-05-06 18:35 -44.53775 -66.07737 24848 ft 450 kts 28°
2026-05-06 18:35 -44.51052 -66.05623 24839 ft 450 kts 28°
2026-05-06 18:35 -44.48328 -66.03510 24831 ft 447 kts 28°
2026-05-06 18:36 -44.45674 -66.01454 24825 ft 432 kts 28°
2026-05-06 18:36 -44.43061 -65.99434 24833 ft 428 kts 28°
2026-05-06 18:36 -44.40460 -65.97425 24833 ft 432 kts 28°
2026-05-06 18:36 -44.37791 -65.95476 24830 ft 433 kts 23°
2026-05-06 18:37 -44.35016 -65.93837 24831 ft 431 kts 19°
2026-05-06 18:37 -44.33183 -65.92866 24831 ft 431 kts 18°
2026-05-06 18:37 -44.29393 -65.91052 24830 ft 429 kts 14°
2026-05-06 18:37 -44.26547 -65.90007 24692 ft 422 kts 11°
2026-05-06 18:38 -44.23727 -65.89225 24097 ft 411 kts
2026-05-06 18:38 -44.20941 -65.88676 23493 ft 395 kts
2026-05-06 18:38 -44.18256 -65.88350 22915 ft 391 kts 360°
2026-05-06 18:38 -44.15494 -65.88226 22331 ft 401 kts 358°
2026-05-06 18:39 -44.12825 -65.88171 21724 ft 394 kts 357°
2026-05-06 18:39 -44.10137 -65.88126 21130 ft 379 kts 357°
2026-05-06 18:39 -44.07583 -65.88088 20591 ft 368 kts 357°
2026-05-06 18:40 -44.02376 -65.87841 19451 ft 380 kts
2026-05-06 18:40 -43.99829 -65.87290 18872 ft 366 kts
2026-05-06 18:40 -43.97374 -65.86655 18345 ft 354 kts
2026-05-06 18:40 -43.94934 -65.85914 17836 ft 367 kts 10°
2026-05-06 18:41 -43.92464 -65.85038 17271 ft 365 kts 12°
2026-05-06 18:41 -43.90037 -65.84110 16738 ft 370 kts 13°
2026-05-06 18:41 -43.87538 -65.83133 16177 ft 379 kts 13°
2026-05-06 18:41 -43.84978 -65.82121 15597 ft 385 kts 13°
2026-05-06 18:42 -43.82423 -65.81105 15021 ft 390 kts 13°
2026-05-06 18:42 -43.79792 -65.80057 14427 ft 393 kts 13°
2026-05-06 18:42 -43.77190 -65.79022 13838 ft 395 kts 14°
2026-05-06 18:42 -43.74566 -65.77975 13241 ft 396 kts 14°
2026-05-06 18:43 -43.71921 -65.76923 12640 ft 395 kts 14°
2026-05-06 18:43 -43.69305 -65.75881 12045 ft 392 kts 14°
2026-05-06 18:43 -43.66719 -65.74853 11451 ft 384 kts 14°
2026-05-06 18:43 -43.64188 -65.73847 10875 ft 377 kts 14°
2026-05-06 18:44 -43.61691 -65.72857 10460 ft 366 kts 14°
2026-05-06 18:44 -43.59331 -65.71922 10309 ft 352 kts 14°
2026-05-06 18:44 -43.57005 -65.71001 10138 ft 341 kts 14°
2026-05-06 18:44 -43.54761 -65.70114 9913 ft 334 kts 14°
2026-05-06 18:45 -43.52573 -65.69251 9625 ft 331 kts 14°
2026-05-06 18:45 -43.50339 -65.68372 9153 ft 333 kts 14°
2026-05-06 18:45 -43.48148 -65.67508 8604 ft 337 kts 14°
2026-05-06 18:45 -43.46631 -65.66911 8059 ft 343 kts 14°
2026-05-06 18:46 -43.43578 -65.65708 7104 ft 347 kts 15°
2026-05-06 18:46 -43.41274 -65.64800 6409 ft 344 kts 15°
2026-05-06 18:46 -43.39018 -65.63912 5907 ft 333 kts 15°
2026-05-06 18:46 -43.36842 -65.63056 5627 ft 318 kts 16°
2026-05-06 18:47 -43.34814 -65.62024 5399 ft 307 kts 24°
2026-05-06 18:47 -43.32970 -65.60602 5008 ft 304 kts 33°
2026-05-06 18:47 -43.31313 -65.58791 4645 ft 301 kts 42°
2026-05-06 18:47 -43.29914 -65.56705 4204 ft 302 kts 51°
2026-05-06 18:48 -43.28757 -65.54279 3696 ft 303 kts 60°
2026-05-06 18:48 -43.27877 -65.51685 3224 ft 303 kts 66°
2026-05-06 18:48 -43.27113 -65.49010 2808 ft 301 kts 68°
2026-05-06 18:48 -43.26387 -65.46352 2563 ft 293 kts 69°
2026-05-06 18:49 -43.25704 -65.43847 2355 ft 268 kts 68°
2026-05-06 18:49 -43.25076 -65.41554 2090 ft 248 kts 68°
2026-05-06 18:49 -43.24483 -65.39402 1855 ft 229 kts 68°
2026-05-06 18:49 -43.23963 -65.37521 1885 ft 192 kts 68°
2026-05-06 18:50 -43.23547 -65.36015 1787 ft 147 kts 68°
2026-05-06 18:50 -43.23183 -65.34712 1898 ft 145 kts 67°
2026-05-06 18:50 -43.22801 -65.33358 1566 ft 151 kts 67°
2026-05-06 18:50 -43.22430 -65.32041 1247 ft 147 kts 68°
2026-05-06 18:51 -43.22069 -65.30765 809 ft 147 kts 68°
2026-05-06 18:51 -43.21707 -65.29492 476 ft 143 kts 68°
2026-05-06 18:51 -43.21381 -65.28202 178 ft 139 kts 72°
2026-05-06 18:51 -43.21053 -65.26932 151 ft 144 kts 69°
2026-05-06 18:52 -43.20750 -65.25852 150 ft 91 kts 52°